Weather Roundup
Issued by NWS

Home | Current Version | Previous Version | Graphics & Text | Print | Product List | Glossary Off
Versions: 1 2 3 4 5 6 7 8 9 10 11 12 13 14 15 16 17 18 19 20 21 22 23 24 25 26 27 28 29 30 31 32 33 34 35 36 37 38 39 40 41 42 43 44 45 46 47 48 49 50

000
NZUS93 KARX 021159
HRRWXR

CURRENT HOURLY OBSERVATIONS ACROSS
MUCH OF THE UPPER MISSISSIPPI VALLEY
NATIONAL WEATHER SERVICE LA CROSSE WI
700 AM CDT THU JUL 02 2015


...SOUTHEAST MINNESOTA...


CITY           SKY/WX    TMP DP  RH WIND       PRES   REMARKS
ROCHESTER      SUNNY     55  51  86 N5        30.06S
ROCHESTER/MAYO FAIR      53  52  98 CALM      30.06R
WINONA         FOG       54  54 100 CALM      30.05S VSB<1/4
AUSTIN         SUNNY     50  48  93 CALM      30.05S
ALBERT LEA     SUNNY     52  50  93 CALM      30.05S
DODGE CENTER   SUNNY     54  52  94 CALM      30.05S
PRESTON        SUNNY     51  49  93 CALM      30.05S
OWATONNA       SUNNY     52  48  87 CALM      30.05S
FARIBAULT      SUNNY     52  50  93 CALM      30.04F
$$

...ELSEWHERE IN MINNESOTA...


CITY           SKY/WX    TMP DP  RH WIND       PRES   REMARKS
MINNEAPOLIS    SUNNY     60  55  83 CALM      30.04S
INTNL FALLS    PTSUNNY   58  57  97 W5        29.99R
DULUTH         PTSUNNY   59  53  80 S5        30.04R
RED WING       SUNNY     54  54 100 CALM      30.04S FOG
REDWOOD FALLS  MOSUNNY   55  52  89 CALM      30.02F
MANKATO        SUNNY     55  52  88 E6        30.04F
WORTHINGTON    CLOUDY    55  50  82 SE3       30.02S
FAIRMONT       SUNNY     52  46  82 CALM      30.03R
$$

...SOUTHWEST WISCONSIN...


CITY           SKY/WX    TMP DP  RH WIND       PRES   REMARKS
LA CROSSE      MOSUNNY   53  52  96 SE5       30.06R
PRAIRIE DU CHI NOT AVBL
BOSCOBEL       FOG       52  51  97 CALM      30.05R VSB 1/4
LONE ROCK      NOT AVBL
PLATTEVILLE    NOT AVBL
FORT MC COY    NOT AVBL
CAMP DOUGLAS   FOG       45  45 100 W2        30.06R VSB 3/4
VIROQUA        NOT AVBL
WIS DELLS      NOT AVBL
$$

...ELSEWHERE IN WISCONSIN...


CITY           SKY/WX    TMP DP  RH WIND       PRES   REMARKS
MILWAUKEE      MOSUNNY   54  49  83 NE9       30.02S
MADISON        SUNNY     51  48  89 NW7       30.05R FOG
GREEN BAY      SUNNY     53  50  89 N3        30.06F
EAU CLAIRE     NOT AVBL
BLACK RVR FLS  NOT AVBL
MEDFORD        NOT AVBL
WAUSAU         SUNNY     52  48  86 CALM      30.08R
WIS RAPIDS     SUNNY     54  51  90 CALM      30.09R
MARSHFIELD     SUNNY     54  50  86 SE3       30.08R FOG
RICE LAKE      NOT AVBL
$$

...NORTHEAST IOWA...


CITY           SKY/WX    TMP DP  RH WIND       PRES   REMARKS
DECORAH        NOT AVBL
MASON CITY     MOSUNNY   52  50  93 NE3       30.04F
CHARLES CITY   NOT AVBL
OELWEIN        NOT AVBL
$$

...ELSEWHERE IN IOWA...


CITY           SKY/WX    TMP DP  RH WIND       PRES   REMARKS
DES MOINES     PTSUNNY   59  53  80 E9        29.96S
IOWA CITY      SUNNY     58  52  80 E6        30.00R
FORT DODGE     CLOUDY    54  50  87 E5        30.01S
$$

...NORTHERN ILLINOIS...


CITY           SKY/WX    TMP DP  RH WIND       PRES   REMARKS
CHICAGO-OHARE  CLOUDY    55  53  93 N9        30.00R FOG
CHICAGO-MIDWAY CLOUDY    61  56  83 NE16      29.99R
MOLINE         SUNNY     57  50  77 NE9       29.98S
ROCKFORD       MOSUNNY   55  49  80 NE7       30.04R
PEORIA         PTSUNNY   60  53  77 NE12      29.96R
$$

NOTE: "FAIR" INDICATES FEW OR NO CLOUDS BELOW 12,000 FEET WITH NO
SIGNIFICANT WEATHER AND/OR OBSTRUCTIONS TO VISIBILITY. WIND
SPEEDS ARE IN MILES-PER-HOUR.



USA.gov is the U.S. government's official web portal to all federal, state and local government web resources and services.